YO6RK-13 Weather Reports


Display with metric or nautical units.
time (UTC)temp
F
wind
direction
speed
MPH
gust
MPH
rain 1hr
in
rain 24hr
in
rain mn
in
humidity
%
barometer
mb
20260505010015 44 293 0.0 0.0 0.00 0.00 0.00 83 1014.4
20260505005015 44 293 0.0 0.0 0.00 0.00 0.00 84 1014.3
20260505004538 44 293 0.0 0.0 0.00 0.00 0.00 84 1014.4
20260505004038 44 293 0.0 0.0 0.00 0.00 0.00 83 1014.3
20260505003528 44 293 0.0 0.0 0.00 0.00 0.00 83 1014.3
20260505003019 44 293 0.0 0.0 0.00 0.00 0.00 82 1014.3
20260505002026 44 293 0.0 0.0 0.00 0.00 0.00 82 1014.3
20260505001541 44 293 0.0 0.0 0.00 0.00 0.00 82 1014.2
20260505000519 45 293 0.0 0.0 0.00 0.00 0.00 82 1014.1
20260505000021 44 293 0.0 0.0 0.00 0.00 0.00 82 1014.2
20260504235521 44 293 0.0 0.0 0.00 0.00 0.00 82 1014.2
20260504235021 44 293 0.0 0.0 0.00 0.00 0.00 82 1014.0
20260504234017 45 293 0.0 0.0 0.00 0.00 0.00 82 1014.1
20260504233534 45 293 0.0 0.0 0.00 0.00 0.00 81 1014.1
20260504233016 45 293 0.0 0.0 0.00 0.00 0.00 81 1014.1
20260504232525 46 293 0.0 0.0 0.00 0.00 0.00 80 1014.2
20260504232031 46 293 0.0 0.0 0.00 0.00 0.00 79 1014.2
20260504231531 47 293 0.0 0.0 0.00 0.00 0.00 79 1014.2
20260504231030 47 293 0.0 0.0 0.00 0.00 0.00 79 1014.1
20260504230530 47 293 0.0 0.0 0.00 0.00 0.00 78 1014.1
20260504230207 47 293 0.0 0.0 0.00 0.00 0.00 78 1014.2
20260504225529 47 293 0.0 0.0 0.00 0.00 0.00 79 1014.3
20260504225025 47 293 0.0 0.0 0.00 0.00 0.00 77 1014.1
20260504223531 47 293 0.0 0.0 0.00 0.00 0.00 77 1014.1
20260504223012 47 293 0.0 0.0 0.00 0.00 0.00 77 1014.2
20260504222520 47 293 0.0 0.0 0.00 0.00 0.00 77 1014.2
20260504222021 48 293 0.0 0.0 0.00 0.00 0.00 76 1014.3
20260504221011 48 293 0.0 0.0 0.00 0.00 0.00 76 1014.3
20260504215533 48 293 0.0 0.0 0.00 0.00 0.00 75 1014.2
20260504215024 48 293 0.0 0.0 0.00 0.00 0.00 75 1014.2
20260504214524 48 293 0.0 0.0 0.00 0.00 0.00 75 1014.2
20260504214032 48 293 0.0 0.0 0.00 0.00 0.00 76 1014.2
20260504213528 49 293 0.0 0.0 0.00 0.00 0.00 76 1014.1
20260504213026 49 293 0.0 0.0 0.00 0.00 0.00 75 1014.1
20260504212510 49 293 0.0 0.0 0.00 0.00 0.00 75 1014.0
20260504212018 49 293 0.0 0.0 0.00 0.00 0.00 75 1014.0
20260504211515 49 293 0.0 0.0 0.00 0.00 0.00 75 1014.1
20260504211039 49 293 0.0 0.0 0.00 0.00 0.00 75 1014.0
20260504210519 49 293 0.0 0.0 0.00 0.00 0.00 76 1014.1
20260504205539 49 293 0.0 0.0 0.00 0.00 0.00 77 1013.9
20260504204528 49 293 0.0 0.0 0.00 0.00 0.00 78 1014.0
20260504204022 49 293 0.0 0.0 0.00 0.00 0.00 78 1013.9
20260504203528 50 293 0.0 0.0 0.00 0.00 0.00 78 1014.0
20260504203030 50 293 0.0 0.0 0.00 0.00 0.00 77 1013.8
20260504202534 50 293 0.0 0.0 0.00 0.00 0.00 77 1013.8
20260504202021 50 293 0.0 0.0 0.00 0.00 0.00 77 1013.8
20260504201525 52 293 0.0 0.0 0.00 0.00 0.00 77 1013.8
20260504201012 53 293 0.0 0.0 0.00 0.00 0.00 77 1013.7
20260504200519 54 293 0.0 0.0 0.00 0.00 0.00 76 1013.8
20260504200035 54 293 0.0 0.0 0.00 0.00 0.00 76 1013.8
20260504195520 54 293 0.0 0.0 0.00 0.00 0.00 76 1014.0
20260504195036 54 293 0.0 0.0 0.00 0.00 0.00 76 1013.8
20260504194534 55 293 0.0 0.0 0.00 0.00 0.00 75 1013.9
20260504193533 55 293 0.0 0.0 0.00 0.00 0.00 75 1013.8
20260504193023 55 293 0.0 0.0 0.00 0.00 0.00 75 1013.8
20260504192523 55 293 0.0 0.0 0.00 0.00 0.00 73 1013.8
20260504192023 56 293 0.0 0.0 0.00 0.00 0.00 73 1013.8
20260504191019 56 293 0.0 0.0 0.00 0.00 0.00 74 1013.7
20260504190513 56 293 0.0 0.0 0.00 0.00 0.00 73 1013.7
20260504190011 57 293 0.0 0.0 0.00 0.00 0.00 73 1013.7
20260504185535 57 293 0.0 0.0 0.00 0.00 0.00 73 1013.7
20260504185012 57 293 0.0 0.0 0.00 0.00 0.00 72 1013.7
20260504184533 58 293 0.0 0.0 0.00 0.00 0.00 71 1013.8
20260504184015 58 293 0.0 0.0 0.00 0.00 0.00 69 1013.7
20260504182530 59 315 0.0 0.0 0.00 0.00 0.00 70 1013.6
20260504182029 59 315 0.0 0.0 0.00 0.00 0.00 69 1013.5
20260504181520 59 315 0.0 0.0 0.00 0.00 0.00 68 1013.4
20260504180511 59 315 0.0 0.0 0.00 0.00 0.00 62 1013.4
20260504180011 60 315 0.0 0.0 0.00 0.00 0.00 62 1013.3
20260504175510 60 315 0.0 0.0 0.00 0.00 0.00 59 1013.1
20260504175009 61 315 0.0 0.0 0.00 0.00 0.00 60 1013.1
20260504174524 61 315 0.0 0.0 0.00 0.00 0.00 55 1013.0
20260504174032 61 315 0.0 0.0 0.00 0.00 0.00 54 1013.0
20260504173514 62 315 0.0 0.0 0.00 0.00 0.00 54 1013.0
20260504173039 62 315 0.0 0.0 0.00 0.00 0.00 54 1012.9
20260504172539 63 315 0.0 0.0 0.00 0.00 0.00 53 1012.9
20260504172046 64 315 0.0 0.0 0.00 0.00 0.00 50 1012.8
20260504171537 65 315 0.0 0.0 0.00 0.00 0.00 46 1012.8
20260504171012 66 315 0.0 0.0 0.00 0.00 0.00 44 1012.8
20260504170528 66 315 0.0 0.0 0.00 0.00 0.00 40 1012.9
20260504151031 68 180 0.0 0.0 0.00 0.00 0.00 53 1012.5
20260504150535 69 180 0.0 0.0 0.00 0.00 0.00 54 1012.5
20260504141023 71 180 0.0 0.0 0.00 0.00 0.00 40 1012.9
20260504140532 71 180 0.0 0.0 0.00 0.00 0.00 39 1013.0
20260504110516 72 158 0.0 0.0 0.00 0.00 0.00 39 1014.7
20260504100520 70 90 0.0 0.0 0.00 0.00 0.00 42 1015.2
20260504081522 63 135 0.0 0.0 0.00 0.00 0.00 44 1015.8
20260504081022 63 90 0.0 0.0 0.00 0.00 0.00 45 1015.8
20260504050545 52 338 0.0 0.0 0.00 0.00 0.00 60 1016.2
20260504050020 51 338 0.0 0.0 0.00 0.00 0.00 65 1016.1
20260504045510 50 338 0.0 0.0 0.00 0.00 0.00 67 1016.1
20260504045035 49 338 0.0 0.0 0.00 0.00 0.00 69 1016.1
20260504044040 48 315 0.0 0.0 0.00 0.00 0.00 70 1016.2
20260504043539 47 315 0.0 0.0 0.00 0.00 0.00 71 1016.2
20260504043038 45 315 0.0 0.0 0.00 0.00 0.00 74 1016.2
20260504041510 43 315 0.0 0.0 0.00 0.00 0.00 79 1016.1
20260504041019 42 315 0.0 0.0 0.00 0.00 0.00 79 1016.2
20260504040533 42 315 0.0 0.0 0.00 0.00 0.00 79 1016.3
20260504040023 42 315 0.0 0.0 0.00 0.00 0.00 79 1016.2
20260504035515 42 315 0.0 0.0 0.00 0.00 0.00 79 1016.2
20260504035016 42 315 0.0 0.0 0.00 0.00 0.00 79 1016.1
20260504034531 42 315 0.0 0.0 0.00 0.00 0.00 80 1016.1
20260504034056 42 315 0.0 0.0 0.00 0.00 0.00 80 1016.2
20260504033538 42 315 0.0 0.0 0.00 0.00 0.00 79 1016.3
20260504033022 42 315 0.0 0.0 0.00 0.00 0.00 78 1016.2
20260504032553 42 315 0.0 0.0 0.00 0.00 0.00 78 1016.2
20260504032020 42 315 0.0 0.0 0.00 0.00 0.00 77 1016.2
20260504031510 42 315 0.0 0.0 0.00 0.00 0.00 76 1016.1
20260504031025 42 315 0.0 0.0 0.00 0.00 0.00 76 1016.1
20260504030515 43 315 0.0 0.0 0.00 0.00 0.00 76 1016.1
20260504030022 42 315 0.0 0.0 0.00 0.00 0.00 77 1016.2
20260504025029 42 315 0.0 0.0 0.00 0.00 0.00 78 1016.2
20260504024529 41 315 0.0 0.0 0.00 0.00 0.00 79 1016.2
20260504024028 41 315 0.0 0.0 0.00 0.00 0.00 78 1016.1
20260504023026 42 315 0.0 0.0 0.00 0.00 0.00 78 1016.1
20260504022518 42 315 0.0 0.0 0.00 0.00 0.00 77 1016.2
20260504022041 42 315 0.0 0.0 0.00 0.00 0.00 77 1016.3
20260504021516 42 315 0.0 0.0 0.00 0.00 0.00 77 1016.2
20260504021032 42 315 0.0 0.0 0.00 0.00 0.00 77 1016.4
20260504020531 42 315 0.0 0.0 0.00 0.00 0.00 77 1016.3
20260504020015 42 315 0.0 0.0 0.00 0.00 0.00 77 1016.2
20260504015539 42 315 0.0 0.0 0.00 0.00 0.00 76 1016.2
20260504015012 42 315 0.0 0.0 0.00 0.00 0.00 77 1016.1
20260504014512 42 315 0.0 0.0 0.00 0.00 0.00 76 1016.2
20260504014019 42 315 0.0 0.0 0.00 0.00 0.00 77 1016.2
20260504013518 42 315 0.0 0.0 0.00 0.00 0.00 75 1016.2
20260504013027 42 315 0.0 0.0 0.00 0.00 0.00 74 1016.2
20260504012533 42 315 0.0 0.0 0.00 0.00 0.00 74 1016.2
20260504010540 43 315 0.0 0.0 0.00 0.00 0.00 72 1016.1